ATLAS CENTAUR 2 1 00694U 63047A 26118.87781056 .00004137 00000+0 49444-3 0 9991 2 00694 30.3537 275.1163 0546459 162.6924 199.3116 14.12319054138721 THOR AGENA D R/B 1 00733U 64002A 26119.03775933 .00000181 00000+0 81803-4 0 9994 2 00733 99.1185 135.1140 0033911 111.4257 249.0549 14.34044384245516 SL-3 R/B 1 00877U 64053B 26119.26412590 .00000172 00000+0 57531-4 0 9992 2 00877 65.0763 182.9571 0081177 276.3654 82.8206 14.61401027274185 SL-8 R/B 1 02802U 67045B 26119.09197677 .00000325 00000+0 97524-4 0 9999 2 02802 74.0107 253.9510 0065144 249.5320 109.8837 14.45657245 96300 SL-8 R/B 1 03230U 68040B 26119.28236795 .00002595 00000+0 19186-3 0 9995 2 03230 74.0318 210.2850 0024221 13.7007 346.4834 15.03579088 97611 OAO 2 1 03597U 68110A 26119.00554000 .00000243 00000+0 70478-4 0 9991 2 03597 34.9948 344.2887 0006234 244.0554 115.9495 14.47333174 26399 ISIS 1 1 03669U 69009A 26119.16293992 .00000136 00000+0 94139-4 0 9997 2 03669 88.4440 149.7878 1706864 347.3118 8.9575 11.30425016354231 SERT 2 1 04327U 70009A 26119.30574343 .00000001 00000+0 58135-4 0 9996 2 04327 99.2820 59.6482 0005562 43.2944 110.7148 13.58735946786763 SL-3 R/B 1 05118U 71028B 26119.22014312 .00040734 00000+0 40350-3 0 9999 2 05118 81.2360 349.4180 0016263 100.1092 260.1999 15.65465373996563 ASTEX 1 1 05560U 71089A 26119.17206752 .00000353 00000+0 89743-4 0 9995 2 05560 92.7041 168.0624 0013209 274.5099 85.4598 14.50814796869624 SL-8 R/B 1 05730U 71119B 26119.22278292 .00012131 00000+0 62768-3 0 9996 2 05730 73.8850 81.1920 0545188 37.1608 326.6004 14.38744566662750 OAO 3 (COPERNICUS) 1 06153U 72065A 26119.08334841 .00000335 00000+0 72920-4 0 9999 2 06153 35.0071 10.1907 0007109 217.6746 284.1128 14.60033604853561 ATLAS CENTAUR R/B 1 06155U 72065B 26119.02811323 .00001371 00000+0 18939-3 0 9990 2 06155 35.0029 10.7162 0032737 73.6350 286.7946 14.77818781848713 SL-8 R/B 1 08459U 75112B 26119.21128196 .00000162 00000+0 61984-4 0 9991 2 08459 74.0596 285.9723 0015578 0.8998 359.2181 14.38226711639131 SL-3 R/B 1 10114U 77057B 26119.19804799 .00011027 00000+0 22136-3 0 9996 2 10114 97.5817 293.4136 0008436 101.2859 258.9338 15.46822146676131 SEASAT 1 1 10967U 78064A 26119.26776816 .00000346 00000+0 13514-3 0 9999 2 10967 108.0089 231.6194 0002773 258.6031 101.4803 14.46202829513825 SL-14 R/B 1 11267U 79011B 26119.21713569 .00000557 00000+0 52384-4 0 9990 2 11267 82.5259 48.6185 0014492 246.7259 113.2436 14.91970333536315 SL-8 R/B 1 11574U 79089B 26119.09990668 .00000221 00000+0 74858-4 0 9997 2 11574 74.0707 357.7293 0015519 160.5759 199.5992 14.42380697443374 SL-14 R/B 1 11672U 80005B 26119.19634027 .00000595 00000+0 57612-4 0 9994 2 11672 82.5129 259.3094 0015612 0.6857 359.4381 14.90985605484016 SL-8 R/B 1 12139U 81003B 26119.29532218 .00012658 00000+0 31533-3 0 9998 2 12139 82.9370 243.1481 0255090 2.8111 357.4480 15.12931832322322 SL-3 R/B 1 12465U 81046B 26119.24980825 .00011377 00000+0 25415-3 0 9992 2 12465 81.2318 228.9686 0018590 200.9045 159.1441 15.43195346446221 SL-3 R/B 1 12904U 81103B 26119.27457587 .00003502 00000+0 15242-3 0 9999 2 12904 81.1576 154.0781 0014350 114.8739 245.3987 15.21881052980927 SL-3 R/B 1 13068U 82013B 26119.26354309 .00004187 00000+0 17879-3 0 9997 2 13068 81.1712 101.4638 0022316 13.0599 347.1206 15.22429159412048 SL-3 R/B 1 13154U 82039B 26119.27652426 .00001762 00000+0 10509-3 0 9992 2 13154 81.1470 157.6041 0028757 152.0875 208.1901 15.10313394389278 SL-3 R/B 1 13403U 82079B 26119.31735459 .00005241 00000+0 20520-3 0 9996 2 13403 81.1436 133.2726 0023899 358.2019 1.9124 15.25350127385418 SL-14 R/B 1 13553U 82092B 26119.18039865 .00000501 00000+0 53329-4 0 9998 2 13553 82.5655 94.1544 0021532 130.7191 240.0517 14.86708437336438 SL-3 R/B 1 13819U 83010B 26119.01341565 .00013365 00000+0 25545-3 0 9999 2 13819 81.1006 300.4664 0015312 229.5396 130.4516 15.47830323365720 SL-3 R/B 1 14208U 83075B 26119.27182620 .00009918 00000+0 25235-3 0 9991 2 14208 97.6120 125.8108 0022525 52.5214 307.8075 15.39544943337934 COSMOS 1536 1 14699U 84013A 26119.20590104 .00006213 00000+0 25056-3 0 9997 2 14699 82.5457 57.5995 0016240 102.8691 257.4362 15.24498317280319 SL-14 R/B 1 14820U 84027B 26119.26273280 .00000421 00000+0 45215-4 0 9992 2 14820 82.5442 197.5916 0018490 161.4603 198.7291 14.86025205255140 SL-8 R/B 1 15483U 85006B 26119.24404312 .00000234 00000+0 86146-4 0 9996 2 15483 74.0448 168.1271 0017211 68.6643 4.5452 14.37813413161295 SL-12 R/B(2) 1 15772U 85042D 26119.07118517 .00000022 00000+0 31393-4 0 9996 2 15772 71.1093 341.2886 0033591 44.8220 65.9843 14.21995911121559 SL-14 R/B 1 15945U 85069B 26119.09736725 .00000430 00000+0 45689-4 0 9992 2 15945 82.5271 337.5430 0019533 29.5670 330.6647 14.86479742180321 SL-16 R/B 1 16182U 85097B 26119.20997302 -.00000161 00000+0 -56764-4 0 9999 2 16182 71.0047 34.1906 0007888 196.4265 315.8160 14.16605323 94385 SL-14 R/B 1 16496U 86006B 26119.26313089 .00000743 00000+0 75778-4 0 9998 2 16496 82.5291 212.1438 0077939 104.8343 256.1525 14.86896249156728 COSMOS 1743 1 16719U 86034A 26119.16388156 .00041791 00000+0 45968-3 0 9998 2 16719 82.5327 20.6847 0007380 96.6122 263.5977 15.62944756188122 SL-14 R/B 1 16792U 86046B 26119.25540031 .00000485 00000+0 52878-4 0 9998 2 16792 82.4848 32.4060 0024510 62.6147 297.7559 14.85637490133912 SL-14 R/B 1 16882U 86055B 26119.26089591 .00000500 00000+0 54656-4 0 9992 2 16882 82.5192 79.1239 0019341 160.2936 323.4064 14.85685808126879 AJISAI (EGS) 1 16908U 86061A 26119.30428626 -.00000080 00000+0 12546-3 0 9994 2 16908 50.0096 297.7103 0011433 56.7048 352.1179 12.44516088474302 SL-14 R/B 1 17567U 87024B 26119.27043268 .00000482 00000+0 51977-4 0 9994 2 17567 82.5303 45.2204 0019828 92.9101 267.4385 14.86178329 95644 COSMOS 1833 1 17589U 87027A 26119.26288244 -.00000181 00000+0 -71254-4 0 9993 2 17589 70.9161 219.7119 0022386 135.9080 224.3831 14.13032833 17462 SL-16 R/B 1 17590U 87027B 26119.23068549 .00000085 00000+0 66087-4 0 9995 2 17590 71.0021 169.9929 0003821 18.8487 341.2777 14.17172511 22500 SL-14 R/B 1 17912U 87038B 26119.29129108 .00000461 00000+0 50614-4 0 9997 2 17912 82.5008 249.1250 0019182 2.0212 358.1078 14.85413230 86744 COSMOS 1844 1 17973U 87041A 26119.17304009 -.00000278 00000+0 -11904-3 0 9996 2 17973 70.8980 287.6925 0032824 304.1487 55.6522 14.14558972 10727 SL-14 R/B 1 18153U 87055B 26119.25933387 .00000495 00000+0 54151-4 0 9999 2 18153 82.4966 301.3607 0020014 202.5224 157.5116 14.85672082 77440 COSMOS 1867 1 18187U 87060A 26119.23048083 -.00000031 00000+0 25844-4 0 9994 2 18187 65.0093 165.1643 0015480 281.1087 78.8256 14.31510209 27170 SL-14 R/B 1 18749U 88001B 26119.32548540 .00000408 00000+0 44268-4 0 9995 2 18749 82.5119 147.7441 0019572 72.7090 287.6265 14.85572945 49542 COSMOS 1933 1 18958U 88020A 26119.21016158 .00003116 00000+0 14996-3 0 9994 2 18958 82.5158 200.9200 0004689 43.4701 316.6902 15.18416970 57899 SL-3 R/B 1 19046U 88032B 26119.21925609 .00005078 00000+0 23384-3 0 9996 2 19046 97.5234 102.3328 0027358 60.0742 300.3205 15.20423443 59785 SL-16 R/B 1 19120U 88039B 26119.29051932 .00000035 00000+0 39527-4 0 9998 2 19120 71.0149 321.5532 0024053 262.9605 96.8784 14.19624588965563 COSMOS 1953 1 19210U 88050A 26119.21686289 .00006756 00000+0 23662-3 0 9990 2 19210 82.5045 107.3851 0009099 312.6806 47.3666 15.29265294 45508 SL-8 R/B 1 19257U 88053B 26119.21135140 .00000205 00000+0 75012-4 0 9999 2 19257 74.0498 19.3381 0020472 190.2588 287.0728 14.38943407983862 COSMOS 1975 1 19573U 88093A 26119.13659438 .00007670 00000+0 27329-3 0 9996 2 19573 82.5191 67.0071 0011311 3.8674 356.2651 15.28695019 27114 SL-14 R/B 1 19574U 88093B 26119.12508847 .00000378 00000+0 40712-4 0 9993 2 19574 82.5329 354.7105 0019453 228.5688 284.2863 14.85705620 8507 SL-16 R/B 1 19650U 88102B 26119.19684316 .00000132 00000+0 91059-4 0 9990 2 19650 71.0009 45.2211 0016261 290.4335 69.5042 14.16157826934044 INTERCOSMOS 24 1 20261U 89080A 26119.24468156 .00000487 00000+0 13812-3 0 9997 2 20261 82.6047 71.4807 1187589 175.4251 185.8969 12.59603978673160 SL-14 R/B 1 20262U 89080C 26119.12379214 .00000391 00000+0 10845-3 0 9998 2 20262 82.5903 140.8197 1230954 69.5353 303.3395 12.50531346666459 DELTA 1 R/B 1 20323U 89089B 26119.11016132 .00000274 00000+0 76655-4 0 9993 2 20323 97.0663 318.5138 0068067 324.3177 35.3481 14.50699093903042 ARIANE 40 R/B 1 20443U 90005H 26119.12450074 .00000248 00000+0 92324-4 0 9996 2 20443 98.2993 178.2582 0011085 57.9588 302.2676 14.39900924900067 DELTA 2 R/B(1) 1 20453U 90008B 26118.63495227 .00064237 00000+0 60822-3 0 9999 2 20453 35.6018 205.4372 0073178 7.3498 352.8298 15.62330203933938 COSMOS 2058 1 20465U 90010A 26119.15818398 .00002824 00000+0 16393-3 0 9999 2 20465 82.4690 357.7023 0010196 149.1862 210.9969 15.11717732949860 SL-14 R/B 1 20466U 90010B 26119.27112504 .00000451 00000+0 51549-4 0 9996 2 20466 82.5043 219.8760 0021004 130.6006 229.7041 14.83615092935986 SL-14 R/B 1 20511U 90018B 26119.20239887 .00000344 00000+0 40237-4 0 9995 2 20511 82.5226 175.8924 0014744 287.0692 72.8907 14.82186691930063 HST 1 20580U 90037B 26119.10719019 .00006745 00000+0 21661-3 0 9991 2 20580 28.4752 55.8662 0001712 325.4254 34.6231 15.30194557781042 SL-16 R/B 1 20625U 90046B 26119.24176115 .00000252 00000+0 15481-3 0 9990 2 20625 70.9988 191.7428 0015935 232.4046 127.5630 14.15016790855549 COSMOS 2084 1 20663U 90055A 26119.25850300 .00001987 00000+0 14970-3 0 9996 2 20663 62.7890 163.0649 0009164 212.8315 147.2217 15.05917554943936 SL-6 R/B(2) 1 20666U 90055D 26119.24474006 .00002548 00000+0 19691-3 0 9992 2 20666 62.7824 81.8965 0032960 357.4970 2.5959 15.03815600945796 SL-8 R/B 1 20775U 90078B 26119.21824723 .00021097 00000+0 61471-3 0 9993 2 20775 82.9061 205.8226 0355983 203.2915 155.1835 14.90533891816825 SL-8 R/B 1 21088U 91006B 26119.31433188 .00000196 00000+0 18144-3 0 9991 2 21088 82.9397 132.3958 0020997 252.2446 118.3748 13.77505563771045 OKEAN-3 1 21397U 91039A 26119.21082461 .00003911 00000+0 27261-3 0 9991 2 21397 82.5134 287.8711 0014573 153.6448 206.5523 15.05078096872632 COSMOS 2151 1 21422U 91042A 26119.24110900 .00001941 00000+0 15266-3 0 9990 2 21422 82.4990 34.9068 0010704 246.3474 113.6627 15.00305680870770 SL-14 R/B 1 21423U 91042B 26119.19870913 .00000350 00000+0 41185-4 0 9995 2 21423 82.4940 172.8346 0018542 76.7347 283.5933 14.81872295860550 ERS-1 1 21574U 91050A 26119.30060509 .00000335 00000+0 12148-3 0 9995 2 21574 98.7831 138.7985 0032861 53.5993 306.8217 14.39485746823014 ARIANE 40 R/B 1 21610U 91050F 26119.09258602 .00000284 00000+0 97385-4 0 9995 2 21610 98.1916 169.4122 0001773 285.6727 74.4268 14.42927152826268 INTERCOSMOS 25 1 21819U 91086A 26119.17127545 .00000877 00000+0 16911-3 0 9998 2 21819 82.5994 279.4733 1485663 8.1301 354.1196 12.12134329502803 SL-8 R/B 1 21876U 92008B 26119.25991572 .00000048 00000+0 34033-4 0 9990 2 21876 82.9282 230.1604 0034354 355.7296 64.3380 13.75970995716372 SL-8 R/B 1 21938U 92020B 26119.02643043 -.00000031 00000+0 -47860-4 0 9991 2 21938 82.9269 116.3747 0029594 154.7115 259.8648 13.75548197708055 USA 81 1 21949U 92023A 26119.23550777 .00000200 00000+0 66800-4 0 9991 2 21949 85.0039 102.2609 0001434 107.3356 252.7993 14.32383692102022 COSMOS 2219 1 22219U 92076A 26119.16946696 .00000335 00000+0 20037-3 0 9991 2 22219 71.0601 272.5401 0016611 126.8453 233.4196 14.14098621725512 SL-16 R/B 1 22220U 92076B 26119.25306601 -.00000014 00000+0 17117-4 0 9990 2 22220 70.9989 81.8614 0012269 7.8304 90.1547 14.16865125728992 COSMOS 2221 1 22236U 92080A 26119.32705588 .00001927 00000+0 16749-3 0 9999 2 22236 82.5048 230.5657 0014718 28.2353 331.9664 14.96402291788368 SL-16 R/B 1 22285U 92093B 26119.12714062 .00000245 00000+0 14984-3 0 9993 2 22285 71.0216 258.3804 0006098 243.1060 116.9441 14.15459810720291 COSMOS 2228 1 22286U 92094A 26119.24247294 .00001837 00000+0 15510-3 0 9990 2 22286 82.5199 188.9149 0019218 129.2651 231.0281 14.97423343783626 SL-16 R/B 1 22566U 93016B 26119.24332797 -.00000235 00000+0 -96099-4 0 9994 2 22566 71.0037 109.0053 0012470 250.2547 109.7231 14.15308125709322 COSMOS 2242 1 22626U 93024A 26119.24689237 .00001962 00000+0 16888-3 0 9997 2 22626 82.5208 218.3533 0017445 132.3857 227.8846 14.96757760787955 SL-16 R/B 1 22803U 93059B 26119.15408509 .00000259 00000+0 15161-3 0 9994 2 22803 70.9898 264.7039 0015693 139.0117 221.2190 14.17240218686686 ARIANE 40 R/B 1 22830U 93061H 26119.18561219 .00000201 00000+0 89432-4 0 9998 2 22830 98.4840 187.0552 0011720 131.3071 228.9124 14.32886082701339 COSMOS 2278 1 23087U 94023A 26119.23578720 .00000073 00000+0 62903-4 0 9994 2 23087 71.0544 69.3426 0010735 303.3730 56.6365 14.14388719651951 SL-16 R/B 1 23088U 94023B 26119.25947929 .00000150 00000+0 10230-3 0 9999 2 23088 70.9996 324.6870 0004992 237.9237 122.1401 14.15015742653241 SL-16 R/B 1 23343U 94074B 26119.04011880 .00000445 00000+0 66208-4 0 9998 2 23343 97.7032 147.8007 0007900 63.8401 326.0373 14.79459430694694 SL-16 R/B 1 23405U 94077B 26119.29202010 -.00000091 00000+0 -22122-4 0 9990 2 23405 70.9833 246.0271 0000275 64.5031 295.6120 14.15572831623396 ARIANE 40+ R/B 1 23561U 95021B 26119.20017653 .00000274 00000+0 10131-3 0 9998 2 23561 98.4426 189.9783 0006478 1.5393 57.8692 14.39805515626511 SL-16 R/B 1 23705U 95058B 26119.23079210 -.00000245 00000+0 -10119-3 0 9994 2 23705 71.0211 74.1427 0011100 33.0392 327.1422 14.15504001575008 SL-16 R/B 1 24298U 96051B 26119.23634117 .00000093 00000+0 77132-4 0 9997 2 24298 70.7611 68.2497 0012507 59.9280 300.3078 14.12428885528787 ORBVIEW 2 (SEASTAR) 1 24883U 97037A 26119.02096453 .00000253 00000+0 10402-3 0 9998 2 24883 98.8645 284.6882 0001107 269.8323 90.2735 14.35527152515694 SL-16 R/B 1 25400U 98043G 26119.10869372 .00000043 00000+0 37120-4 0 9993 2 25400 98.8331 72.8560 0009025 224.1930 135.8529 14.26060466446170 SL-16 R/B 1 25407U 98045B 26119.28754144 -.00000047 00000+0 61571-6 0 9995 2 25407 71.0105 75.1654 0009321 299.2101 60.8090 14.16196405434260 ISS (ZARYA) 1 25544U 98067A 26119.16770407 .00006851 00000+0 13230-3 0 9992 2 25544 51.6320 182.7324 0007095 3.0267 357.0763 15.49015163564152 CZ-4B R/B 1 25732U 99025C 26119.09928991 .00000059 00000+0 49137-4 0 9991 2 25732 98.6529 162.1625 0036787 198.2307 181.5798 14.18274693395319 OKEAN-O 1 25860U 99039A 26119.14290277 .00000644 00000+0 91085-4 0 9992 2 25860 97.9351 178.4961 0001595 112.8156 247.3225 14.80407248441852 SL-16 R/B 1 25861U 99039B 26119.14299535 .00000565 00000+0 78316-4 0 9993 2 25861 97.9874 178.1381 0016176 93.7609 266.5454 14.81794225444335 DELTA 2 R/B 1 25876U 99041E 26119.19625017 .00000590 00000+0 13427-3 0 9994 2 25876 51.7602 99.5057 0502401 137.3683 226.7401 14.11935056370163 HELIOS 1B 1 25977U 99064A 26119.22203029 .00001659 00000+0 18772-3 0 9995 2 25977 98.1651 22.9410 0000387 111.3519 248.7737 14.87872285692770 TERRA 1 25994U 99068A 26119.25369968 .00000430 00000+0 96510-4 0 9999 2 25994 97.9498 170.7307 0003028 49.8440 351.9401 14.61063180402463 SL-16 R/B 1 26070U 00006B 26119.10417739 .00000275 00000+0 16389-3 0 9995 2 26070 71.0042 351.8327 0014507 107.2243 253.0470 14.15832594355697 TITAN 4B R/B 1 26474U 00047B 26119.24418948 .00002983 00000+0 18800-3 0 9994 2 26474 67.9882 258.3049 0042773 337.8692 22.0609 15.09934496400549 ENVISAT 1 27386U 02009A 26119.31895581 .00000103 00000+0 47299-4 0 9994 2 27386 98.3803 71.7373 0001149 87.8906 71.6668 14.39052855266459 IDEFIX & ARIANE 42P R/B 1 27422U 02021B 26119.11727666 .00000246 00000+0 10999-3 0 9999 2 27422 98.5923 57.1392 0012692 43.1279 317.0896 14.31057448251232 AQUA 1 27424U 02022A 26119.26842454 .00000903 00000+0 18967-3 0 9994 2 27424 98.4248 87.5869 0002068 92.2150 10.7337 14.62079999276129 CZ-4B R/B 1 27432U 02024C 26119.15275914 .00000039 00000+0 43288-4 0 9999 2 27432 98.8740 172.2805 0049236 238.9936 187.2055 14.14556183236372 MIDORI II (ADEOS-II) 1 27597U 02056A 26119.13645162 .00000298 00000+0 13470-3 0 9996 2 27597 98.7845 77.9905 0000962 141.1722 218.9529 14.29320754217503 H-2A R/B 1 27601U 02056E 26118.94937927 .00000352 00000+0 13782-3 0 9990 2 27601 98.3280 77.4289 0070554 12.9243 27.9930 14.33795681221313 CZ-4B R/B 1 28059U 03049C 26119.27096456 .00000434 00000+0 11072-3 0 9992 2 28059 98.6898 116.1740 0049315 77.6696 283.0014 14.55063090193955 CZ-2C R/B 1 28222U 04012C 26119.16357851 .00068825 00000+0 54801-3 0 9997 2 28222 97.7130 189.4585 0013339 125.1520 235.0993 15.70870636212188 SL-16 R/B 1 28353U 04021B 26119.29925435 -.00000210 00000+0 -84287-4 0 9993 2 28353 70.9981 126.2871 0006912 305.6762 54.3716 14.14603218129997 CZ-4B R/B 1 28415U 04035C 26119.02351175 .00007651 00000+0 26293-3 0 9998 2 28415 97.3417 152.6690 0032627 147.3746 212.9520 15.29866822187606 CZ-2C R/B 1 28480U 04046B 26119.25043885 .00000187 00000+0 84877-4 0 9993 2 28480 98.1970 31.0825 0139604 5.8949 354.3837 14.27011884115719 ARIANE 5 R/B 1 28499U 04049H 26119.22502721 .00001138 00000+0 13127-3 0 9998 2 28499 98.2690 289.5978 0083905 186.4422 173.5720 14.85361866153291 CZ-2D R/B 1 28738U 05024B 26119.30312745 .00040569 00000+0 41828-3 0 9992 2 28738 97.3530 136.4730 0005279 161.3179 198.8275 15.64702345147685 ALOS (DAICHI) 1 28931U 06002A 26119.28565875 .00001223 00000+0 21249-3 0 9994 2 28931 98.1292 75.0199 0002009 101.0228 259.1203 14.69947303 80918 H-2A R/B 1 28932U 06002B 26119.00423255 .00007833 00000+0 38169-3 0 9992 2 28932 98.2500 270.4270 0052359 71.0892 289.6005 15.17440993102065 RESURS-DK 1 1 29228U 06021A 26119.24761922 .00002683 00000+0 15764-3 0 9998 2 29228 69.9314 106.2160 0003605 335.8222 24.2775 15.13005153 95175 CZ-4B R/B 1 29507U 06046C 26119.13059923 .00005294 00000+0 26443-3 0 9991 2 29507 97.5503 163.8930 0034579 92.9175 267.6016 15.17384099 67698 CZ-2C R/B 1 31114U 07010B 26119.30913642 .00000114 00000+0 71109-4 0 9992 2 31114 98.4039 230.0650 0059738 146.1817 214.3193 14.20263491986908 COSMO-SKYMED 1 1 31598U 07023A 26119.27315990 .00003383 00000+0 30023-3 0 9990 2 31598 97.8866 310.7224 0001674 98.6821 261.4590 14.96860848 22479 COSMOS 2428 1 31792U 07029A 26119.22392894 -.00000193 00000+0 -77726-4 0 9995 2 31792 70.9393 97.2721 0008915 220.3734 139.6727 14.12944414971238 SL-16 R/B 1 31793U 07029B 26119.27590145 .00000342 00000+0 20209-3 0 9997 2 31793 70.9758 66.0451 0002512 267.9590 255.4226 14.14847136972521 KORONAS-FOTON 1 33504U 09003A 26119.25004431 .00012745 00000+0 27214-3 0 9992 2 33504 82.4316 223.2601 0009520 338.0776 22.0063 15.44668843953545 CZ-2C R/B 1 37731U 11030B 26119.21302113 .00001064 00000+0 13986-3 0 9998 2 37731 97.8621 75.4995 0052195 184.3369 272.3118 14.81362764797572 H-2A R/B 1 38341U 12025E 26118.91532183 .00002599 00000+0 23656-3 0 9998 2 38341 98.4788 90.0219 0044923 147.0551 213.3482 14.95453618755726 SHIJIAN-16 (SJ-16) 1 39358U 13057A 26119.30758700 .00000699 00000+0 70849-4 0 9998 2 39358 74.9706 89.2490 0016307 343.8173 16.2492 14.92481864679059 SL-4 R/B 1 39679U 14021B 26119.24304818 .00012519 00000+0 26729-3 0 9997 2 39679 51.6055 90.3335 0092544 287.9781 71.1133 15.40782624664064 ALOS-2 1 39766U 14029A 26119.30825453 .00001713 00000+0 23621-3 0 9994 2 39766 97.9205 217.1711 0001684 87.1855 272.9549 14.79475188644352 YAOGAN-29 1 41038U 15069A 26119.33021725 .00000462 00000+0 63484-4 0 9999 2 41038 98.0074 147.8790 0001942 133.4656 226.6719 14.83045210563382 ASTRO-H (HITOMI) 1 41337U 16012A 26119.13133372 .00003285 00000+0 18992-3 0 9999 2 41337 31.0004 30.9533 0009377 119.8657 240.2914 15.10295460559862 HXMT (HUIYAN) 1 42758U 17034A 26119.31907413 .00004395 00000+0 22095-3 0 9999 2 42758 43.0130 95.0548 0031926 197.5499 162.4248 15.18021021490231 SAOCOM 1A 1 43641U 18076A 26119.32592360 -.00000001 00000+0 63835-5 0 9990 2 43641 97.8900 306.7823 0001521 88.8012 271.3375 14.82154957408868 H-2A R/B 1 43682U 18084L 26119.20500553 .00016472 00000+0 36806-3 0 9998 2 43682 98.8657 347.4573 0023558 204.7310 155.2806 15.43340329413561 SAOCOM 1B 1 46265U 20059A 26119.28966148 .00000781 00000+0 10471-3 0 9993 2 46265 97.8892 305.8403 0001512 87.6532 272.4854 14.82123809306246 CSS (TIANHE) 1 48274U 21035A 26119.29276164 .00024304 00000+0 26128-3 0 9996 2 48274 41.4670 259.6892 0006720 294.8337 65.1804 15.63149064285526 COSMOS 2550 1 48865U 21056A 26118.85757205 -.00000109 00000+0 25227-5 0 9995 2 48865 67.1429 249.1245 0008399 269.8654 90.1538 15.33829624271153 CZ-2C R/B 1 52794U 22058K 26119.24097964 .00043340 00000+0 55004-3 0 9994 2 52794 50.1872 57.4968 0038220 57.6083 302.8579 15.58056658218009 CZ-2C R/B 1 54039U 22132E 26119.03750865 .00047324 00000+0 45213-3 0 9991 2 54039 97.2926 124.0645 0013026 256.2777 103.7033 15.66496857198246 GSLV R/B 1 54149U 22138AN 26119.32525577 .00001981 00000+0 16894-3 0 9993 2 54149 87.3808 149.3941 0019951 334.1612 25.8622 14.97041733191505 XRISM 1 57800U 23137A 26119.21543314 .00005068 00000+0 28194-3 0 9993 2 57800 31.0021 316.7162 0007655 190.1191 169.9295 15.12039705145442 ACS3 1 59588U 24077B 26118.42628241 .00000948 00000+0 75623-3 0 9998 2 59588 97.1803 48.3648 0058342 343.7079 16.2209 13.91927163101119 HTV-X1 1 66174U 25241A 26118.55936247 .00013912 00000+0 15523-3 0 9991 2 66174 51.6354 191.3330 0007132 1.9599 358.1422 15.63079555 28580 SZ-21 MODULE 1 66515U 25246C 26118.67245089 .00040544 00000+0 29634-3 0 9994 2 66515 41.4734 254.7618 0003706 344.0084 16.0641 15.72433742 25935